Location: Unspecified
(47.1121°N, 116.3927°W)
Time: 06:53:17
(UTC-07:00)

ISS - Pass Details

Date: 21 May 2019
Orbit: 407 x 418 km, 51.6° (Epoch: 24 June)

Event Time Altitude Azimuth Distance (km) Brightness Sun altitude
Rises 22:05:46 0° 261° (W) 2,349 0.5 -13.9°
Reaches altitude 10° 22:07:54 10° 267° (W) 1,491 -0.5 -14.1°
Maximum altitude 22:11:09 50° 344° (NNW) 543 -2.8 -14.5°
Drops below altitude 10° 22:14:27 10° 62° (ENE) 1,501 -1.0 -14.8°
Enters shadow 22:18:08 -5° 70° (ENE) 2,995 0.4 -15.2°
